Regional Weather Roundup
Issued by NWS

Home | Current Version | Previous Version | Graphics & Text | Print | Product List | Glossary On
Versions: 1 2 3 4 5 6 7 8 9 10 11 12 13 14 15 16 17 18 19 20 21 22 23 24 25 26 27 28 29 30 31 32 33 34 35 36 37 38 39 40 41 42 43 44 45 46 47 48 49 50
000
ASUS43 KLSX 260557
RWRMO

WEATHER SUMMARY FOR MISSOURI
NATIONAL WEATHER SERVICE SPRINGFIELD MO
100 AM CDT THU APR 26 2018

NOTE: "FAIR" INDICATES FEW OR NO CLOUDS BELOW 12,000 FEET WITH NO
       SIGNIFICANT WEATHER AND/OR OBSTRUCTIONS TO VISIBILITY.
       CURRENT SKY AND/OR WEATHER CONDITIONS ARE NOT AVAILABLE FOR
       CHILLICOTHE AND FARMINGTON.

MOZ001>031-035>038-043-044-053-054-260700-
...NORTHERN AND WESTERN MISSOURI...

CITY           SKY/WX    TMP DP  RH WIND       PRES   REMARKS
KANSAS CTY INT CLEAR     45  43  93 W5        30.01F
6HR MIN TEMP:  43; 6HR MAX TEMP:  50;

LEE`S SUMMIT   CLOUDY    47  47 100 W3        30.00F FOG
6HR MIN TEMP:  46; 6HR MAX TEMP:  50;

ST JOSEPH      CLEAR     40  38  93 CALM      30.02F
6HR MIN TEMP:  38; 6HR MAX TEMP:  52;

CHILLICOTHE      N/A     42  41  96 CALM      30.00F
6HR MIN TEMP:  41; 6HR MAX TEMP:  53;

KIRKSVILLE     FOG       37  37 100 W5        29.98F VSB 1

$$
MOZ066>068-077>081-088>096-101>105-260700-
...SOUTHWEST MISSOURI...

CITY           SKY/WX    TMP DP  RH WIND       PRES   REMARKS
SPRINGFIELD    CLOUDY    50  48  93 N8        29.96F
6HR MIN TEMP:  50; 6HR MAX TEMP:  53; 6HR PCP:  0.28;

JOPLIN         CLOUDY    51  49  92 N9        30.00R
6HR MIN TEMP:  51; 6HR MAX TEMP:  53; 6HR PCP:  0.03;


$$
MOZ032>034-039>042-045>050-055>058-069>072-260700-
...CENTRAL MISSOURI...

CITY           SKY/WX    TMP DP  RH WIND       PRES   REMARKS
COLUMBIA       NOT AVBL
JEFFERSON CITY LGT RAIN  50  49  96 NW5       29.99F FOG
6HR MIN TEMP:  50; 6HR MAX TEMP:  52; 6HR PCP:  0.09;

ROLLA          LGT RAIN  49  47  93 N6        29.98F FOG
6HR MIN TEMP:  49; 6HR MAX TEMP:  50; 6HR PCP:  0.17;

SEDALIA        CLOUDY    50  50 100 N3        30.01F FOG
6HR MIN TEMP:  50; 6HR MAX TEMP:  51; 6HR PCP:  0.02;

WARRENSBURG    CLOUDY    46  46 100 CALM      30.01S

$$
MOZ051-052-059>065-260700-
...EAST CENTRAL MISSOURI...

CITY           SKY/WX    TMP DP  RH WIND       PRES   REMARKS
ST LOUIS INTL  CLOUDY    56  46  69 NW5       29.95F
6HR MIN TEMP:  56; 6HR MAX TEMP:  63; 6HR PCP: TRACE;


$$
MOZ072>076-082>087-097>100-106>115-260700-
...SOUTH CENTRAL AND SOUTHEAST MISSOURI...

CITY           SKY/WX    TMP DP  RH WIND       PRES   REMARKS
CAPE GIRARDEAU MOCLDY    57  53  86 N9        29.91F
6HR MIN TEMP:  57; 6HR MAX TEMP:  64;

POPLAR BLUFF   CLOUDY    56  52  86 N12       29.90F
6HR MIN TEMP:  56; 6HR MAX TEMP:  62; 6HR PCP:  0.01;


$$




USA.gov is the U.S. government's official web portal to all federal, state and local government web resources and services.